Time,TemperatureF,DewpointF,PressureIn,WindDirection,WindDirectionDegrees,WindSpeedMPH,WindSpeedGustMPH,Humidity,HourlyPrecipIn,Conditions,Clouds,dailyrainin,SoftwareType,DateUTC
2013-05-05 00:01:00,44.0,18.0,26.86,NW,311,0.0,6.0,35,0.00,,,0.00,,2013-05-05 06:01:00,
2013-05-05 00:12:00,44.0,18.0,26.86,NW,311,0.0,6.0,35,0.00,,,0.00,,2013-05-05 06:12:00,
2013-05-05 00:21:00,44.0,18.0,26.86,NW,311,1.0,5.0,35,0.00,,,0.00,,2013-05-05 06:21:00,
2013-05-05 00:32:00,43.0,18.0,26.86,NW,311,0.0,2.0,36,0.00,,,0.00,,2013-05-05 06:32:00,
2013-05-05 00:42:00,43.0,18.0,26.86,NW,311,0.0,2.0,36,0.00,,,0.00,,2013-05-05 06:42:00,
2013-05-05 00:52:00,42.0,18.0,26.86,WNW,298,4.0,6.0,38,0.00,,,0.00,,2013-05-05 06:52:00,
2013-05-05 01:01:00,41.0,18.0,26.86,WNW,293,5.0,7.0,39,0.00,,,0.00,,2013-05-05 07:01:00,
2013-05-05 01:11:00,41.0,18.0,26.86,WNW,293,5.0,7.0,39,0.00,,,0.00,,2013-05-05 07:11:00,
2013-05-05 01:21:00,40.0,18.0,26.85,WNW,292,4.0,6.0,40,0.00,,,0.00,,2013-05-05 07:21:00,
2013-05-05 01:32:00,40.0,18.0,26.85,WNW,288,3.0,6.0,41,0.00,,,0.00,,2013-05-05 07:32:00,
2013-05-05 01:42:00,40.0,18.0,26.85,WNW,288,3.0,6.0,41,0.00,,,0.00,,2013-05-05 07:42:00,
2013-05-05 01:52:00,39.0,18.0,26.85,WNW,288,0.0,5.0,42,0.00,,,0.00,,2013-05-05 07:52:00,
2013-05-05 02:02:00,39.0,18.0,26.85,WNW,287,3.0,6.0,42,0.00,,,0.00,,2013-05-05 08:02:00,
2013-05-05 02:11:00,39.0,18.0,26.85,WNW,287,3.0,6.0,42,0.00,,,0.00,,2013-05-05 08:11:00,
2013-05-05 02:21:00,39.0,18.0,26.84,WNW,288,3.0,5.0,43,0.00,,,0.00,,2013-05-05 08:21:00,
2013-05-05 02:31:00,39.0,18.0,26.85,WNW,287,2.0,6.0,43,0.00,,,0.00,,2013-05-05 08:31:00,
2013-05-05 02:42:00,39.0,18.0,26.85,WNW,287,2.0,6.0,43,0.00,,,0.00,,2013-05-05 08:42:00,
2013-05-05 02:53:00,39.0,18.0,26.84,WNW,284,6.0,8.0,42,0.00,,,0.00,,2013-05-05 08:53:00,
2013-05-05 03:01:00,39.0,18.0,26.84,West,280,3.0,7.0,42,0.00,,,0.00,,2013-05-05 09:01:00,
2013-05-05 03:11:00,39.0,18.0,26.84,West,280,3.0,7.0,42,0.00,,,0.00,,2013-05-05 09:11:00,
2013-05-05 03:21:00,39.0,18.0,26.84,West,279,6.0,8.0,43,0.00,,,0.00,,2013-05-05 09:21:00,
2013-05-05 03:32:00,39.0,18.0,26.84,WNW,286,6.0,9.0,42,0.00,,,0.00,,2013-05-05 09:32:00,
2013-05-05 03:42:00,39.0,18.0,26.84,WNW,286,6.0,9.0,42,0.00,,,0.00,,2013-05-05 09:42:00,
2013-05-05 03:52:00,39.0,17.0,26.84,West,280,6.0,8.0,41,0.00,,,0.00,,2013-05-05 09:52:00,
2013-05-05 04:02:00,39.0,18.0,26.83,WNW,303,2.0,8.0,42,0.00,,,0.00,,2013-05-05 10:02:00,
2013-05-05 04:12:00,39.0,18.0,26.83,WNW,303,2.0,8.0,42,0.00,,,0.00,,2013-05-05 10:12:00,
2013-05-05 04:22:00,39.0,18.0,26.83,West,279,6.0,9.0,42,0.00,,,0.00,,2013-05-05 10:22:00,
2013-05-05 04:32:00,38.0,17.0,26.83,WNW,283,7.0,9.0,42,0.00,,,0.00,,2013-05-05 10:32:00,
2013-05-05 04:42:00,38.0,17.0,26.83,WNW,283,7.0,9.0,42,0.00,,,0.00,,2013-05-05 10:42:00,
2013-05-05 04:53:00,38.0,17.0,26.83,WNW,283,7.0,11.0,42,0.00,,,0.00,,2013-05-05 10:53:00,
2013-05-05 05:01:00,38.0,17.0,26.83,WNW,298,6.0,8.0,42,0.00,,,0.00,,2013-05-05 11:01:00,
2013-05-05 05:12:00,38.0,17.0,26.83,WNW,298,6.0,8.0,42,0.00,,,0.00,,2013-05-05 11:12:00,
2013-05-05 05:21:00,38.0,17.0,26.83,WNW,283,5.0,7.0,42,0.00,,,0.00,,2013-05-05 11:21:00,
2013-05-05 05:32:00,38.0,17.0,26.83,WNW,291,4.0,8.0,42,0.00,,,0.00,,2013-05-05 11:32:00,
2013-05-05 05:42:00,38.0,17.0,26.83,WNW,291,4.0,8.0,42,0.00,,,0.00,,2013-05-05 11:42:00,
2013-05-05 05:52:00,38.0,17.0,26.82,WNW,286,6.0,8.0,42,0.00,,,0.00,,2013-05-05 11:52:00,
2013-05-05 06:02:00,38.0,17.0,26.82,West,269,6.0,10.0,42,0.00,,,0.00,,2013-05-05 12:02:00,
2013-05-05 06:11:00,38.0,17.0,26.82,West,269,6.0,10.0,42,0.00,,,0.00,,2013-05-05 12:11:00,
2013-05-05 06:21:00,38.0,17.0,26.83,West,280,5.0,11.0,42,0.00,,,0.00,,2013-05-05 12:21:00,
2013-05-05 06:32:00,39.0,17.0,26.83,West,281,6.0,10.0,41,0.00,,,0.00,,2013-05-05 12:32:00,
2013-05-05 06:42:00,39.0,17.0,26.83,West,281,6.0,10.0,41,0.00,,,0.00,,2013-05-05 12:42:00,
2013-05-05 06:52:00,40.0,18.0,26.83,West,280,4.0,9.0,40,0.00,,,0.00,,2013-05-05 12:52:00,
2013-05-05 07:01:00,41.0,17.0,26.83,NW,309,3.0,6.0,38,0.00,,,0.00,,2013-05-05 13:01:00,
2013-05-05 07:11:00,41.0,17.0,26.83,NW,309,3.0,6.0,38,0.00,,,0.00,,2013-05-05 13:11:00,
2013-05-05 07:21:00,42.0,18.0,26.84,NW,321,3.0,7.0,37,0.00,,,0.00,,2013-05-05 13:21:00,
2013-05-05 07:32:00,42.0,19.0,26.84,North,11,5.0,8.0,39,0.00,,,0.00,,2013-05-05 13:32:00,
2013-05-05 07:42:00,42.0,19.0,26.84,North,11,5.0,8.0,39,0.00,,,0.00,,2013-05-05 13:42:00,
2013-05-05 07:52:00,42.0,19.0,26.85,NW,313,4.0,7.0,39,0.00,,,0.00,,2013-05-05 13:52:00,
2013-05-05 08:02:00,43.0,20.0,26.85,NE,47,4.0,7.0,39,0.00,,,0.00,,2013-05-05 14:02:00,
2013-05-05 08:11:00,43.0,20.0,26.85,NE,47,4.0,7.0,39,0.00,,,0.00,,2013-05-05 14:11:00,
2013-05-05 08:21:00,45.0,20.0,26.85,NE,46,5.0,7.0,37,0.00,,,0.00,,2013-05-05 14:21:00,
2013-05-05 08:31:00,46.0,20.0,26.85,NE,42,5.0,8.0,35,0.00,,,0.00,,2013-05-05 14:31:00,
2013-05-05 08:42:00,46.0,20.0,26.85,NE,42,5.0,8.0,35,0.00,,,0.00,,2013-05-05 14:42:00,
2013-05-05 08:52:00,47.0,20.0,26.85,NNE,30,4.0,10.0,34,0.00,,,0.00,,2013-05-05 14:52:00,
2013-05-05 09:02:00,48.0,20.0,26.84,NNE,13,8.0,11.0,33,0.00,,,0.00,,2013-05-05 15:02:00,
2013-05-05 09:11:00,48.0,20.0,26.84,NNE,13,8.0,11.0,33,0.00,,,0.00,,2013-05-05 15:11:00,
2013-05-05 09:21:00,48.0,21.0,26.84,NE,46,7.0,12.0,34,0.00,,,0.00,,2013-05-05 15:21:00,
2013-05-05 09:33:00,49.0,21.0,26.84,NE,41,6.0,10.0,33,0.00,,,0.00,,2013-05-05 15:33:00,
2013-05-05 09:43:00,49.0,21.0,26.84,NE,41,6.0,10.0,33,0.00,,,0.00,,2013-05-05 15:43:00,
2013-05-05 09:53:00,49.0,20.0,26.84,NE,41,7.0,12.0,32,0.00,,,0.00,,2013-05-05 15:53:00,
2013-05-05 10:03:00,51.0,21.0,26.84,ENE,57,6.0,10.0,30,0.00,,,0.00,,2013-05-05 16:03:00,
2013-05-05 10:12:00,51.0,21.0,26.84,ENE,57,6.0,10.0,30,0.00,,,0.00,,2013-05-05 16:12:00,
2013-05-05 10:23:00,53.0,22.0,26.84,ENE,67,2.0,9.0,29,0.00,,,0.00,,2013-05-05 16:23:00,
2013-05-05 10:32:00,52.0,21.0,26.83,North,355,5.0,11.0,29,0.00,,,0.00,,2013-05-05 16:32:00,
2013-05-05 10:42:00,52.0,21.0,26.83,North,355,5.0,11.0,29,0.00,,,0.00,,2013-05-05 16:42:00,
2013-05-05 10:53:00,54.0,22.0,26.83,ESE,118,4.0,8.0,28,0.00,,,0.00,,2013-05-05 16:53:00,
2013-05-05 11:02:00,54.0,22.0,26.83,ENE,61,5.0,11.0,28,0.00,,,0.00,,2013-05-05 17:02:00,
2013-05-05 11:12:00,54.0,22.0,26.83,ENE,61,5.0,11.0,28,0.00,,,0.00,,2013-05-05 17:12:00,
2013-05-05 11:23:00,53.0,21.0,26.83,NNW,334,3.0,15.0,28,0.00,,,0.00,,2013-05-05 17:23:00,
2013-05-05 11:32:00,55.0,21.0,26.83,NE,37,7.0,12.0,26,0.00,,,0.00,,2013-05-05 17:32:00,
2013-05-05 11:42:00,55.0,21.0,26.83,NE,37,7.0,12.0,26,0.00,,,0.00,,2013-05-05 17:42:00,
2013-05-05 11:52:00,54.0,20.0,26.83,NNE,27,8.0,14.0,26,0.00,,,0.00,,2013-05-05 17:52:00,
2013-05-05 12:01:00,57.0,22.0,26.82,East,95,4.0,10.0,26,0.00,,,0.00,,2013-05-05 18:01:00,
2013-05-05 12:12:00,57.0,22.0,26.82,East,95,4.0,10.0,26,0.00,,,0.00,,2013-05-05 18:12:00,
2013-05-05 12:21:00,58.0,22.0,26.81,ENE,71,6.0,10.0,25,0.00,,,0.00,,2013-05-05 18:21:00,
2013-05-05 12:32:00,57.0,22.0,26.81,NE,49,3.0,11.0,25,0.00,,,0.00,,2013-05-05 18:32:00,
2013-05-05 12:42:00,57.0,22.0,26.81,NE,49,3.0,11.0,25,0.00,,,0.00,,2013-05-05 18:42:00,
2013-05-05 12:52:00,57.0,22.0,26.80,East,83,3.0,10.0,25,0.00,,,0.00,,2013-05-05 18:52:00,
2013-05-05 13:01:00,58.0,21.0,26.80,East,94,7.0,13.0,24,0.00,,,0.00,,2013-05-05 19:01:00,
2013-05-05 13:11:00,58.0,21.0,26.80,East,94,7.0,13.0,24,0.00,,,0.00,,2013-05-05 19:11:00,
2013-05-05 13:21:00,57.0,22.0,26.79,NNE,15,9.0,14.0,25,0.00,,,0.00,,2013-05-05 19:21:00,
2013-05-05 13:32:00,58.0,24.0,26.79,NE,53,3.0,14.0,27,0.00,,,0.00,,2013-05-05 19:32:00,
2013-05-05 13:42:00,58.0,24.0,26.79,NE,53,3.0,14.0,27,0.00,,,0.00,,2013-05-05 19:42:00,
2013-05-05 13:52:00,59.0,23.0,26.79,East,80,3.0,11.0,25,0.00,,,0.00,,2013-05-05 19:52:00,
2013-05-05 14:01:00,59.0,25.0,26.77,ENE,72,8.0,14.0,27,0.00,,,0.00,,2013-05-05 20:01:00,
2013-05-05 14:11:00,59.0,25.0,26.77,ENE,72,8.0,14.0,27,0.00,,,0.00,,2013-05-05 20:11:00,
2013-05-05 14:21:00,60.0,25.0,26.77,NNE,16,6.0,10.0,26,0.00,,,0.00,,2013-05-05 20:21:00,
2013-05-05 14:31:00,60.0,25.0,26.76,ESE,115,8.0,19.0,26,0.00,,,0.00,,2013-05-05 20:31:00,
2013-05-05 14:41:00,60.0,25.0,26.76,ESE,115,8.0,19.0,26,0.00,,,0.00,,2013-05-05 20:41:00,
2013-05-05 14:52:00,61.0,25.0,26.76,NNE,13,5.0,8.0,25,0.00,,,0.00,,2013-05-05 20:52:00,
2013-05-05 15:02:00,62.0,27.0,26.76,ESE,113,3.0,9.0,26,0.00,,,0.00,,2013-05-05 21:02:00,
2013-05-05 15:11:00,62.0,27.0,26.76,ESE,113,3.0,9.0,26,0.00,,,0.00,,2013-05-05 21:11:00,
2013-05-05 15:21:00,61.0,27.0,26.75,NNE,24,5.0,11.0,27,0.00,,,0.00,,2013-05-05 21:21:00,
2013-05-05 15:33:00,62.0,26.0,26.75,ESE,103,3.0,7.0,25,0.00,,,0.00,,2013-05-05 21:33:00,
2013-05-05 15:42:00,62.0,26.0,26.75,ESE,103,3.0,7.0,25,0.00,,,0.00,,2013-05-05 21:42:00,
2013-05-05 15:53:00,62.0,26.0,26.75,ENE,59,5.0,10.0,25,0.00,,,0.00,,2013-05-05 21:53:00,
2013-05-05 16:02:00,62.0,26.0,26.75,East,87,3.0,11.0,25,0.00,,,0.00,,2013-05-05 22:02:00,
2013-05-05 16:12:00,62.0,26.0,26.75,East,87,3.0,11.0,25,0.00,,,0.00,,2013-05-05 22:12:00,
2013-05-05 16:22:00,61.0,25.0,26.74,ENE,67,1.0,9.0,25,0.00,,,0.00,,2013-05-05 22:22:00,
2013-05-05 16:33:00,61.0,25.0,26.73,ENE,69,7.0,11.0,25,0.00,,,0.00,,2013-05-05 22:33:00,
2013-05-05 16:42:00,61.0,25.0,26.73,ENE,69,7.0,11.0,25,0.00,,,0.00,,2013-05-05 22:42:00,
2013-05-05 16:52:00,62.0,25.0,26.73,NNE,28,5.0,11.0,24,0.00,,,0.00,,2013-05-05 22:52:00,
2013-05-05 17:02:00,61.0,26.0,26.73,ESE,107,4.0,8.0,26,0.00,,,0.00,,2013-05-05 23:02:00,
2013-05-05 17:11:00,61.0,26.0,26.73,ESE,107,4.0,8.0,26,0.00,,,0.00,,2013-05-05 23:11:00,
2013-05-05 17:21:00,62.0,26.0,26.73,East,82,0.0,8.0,25,0.00,,,0.00,,2013-05-05 23:21:00,
2013-05-05 17:32:00,61.0,25.0,26.72,NE,55,7.0,13.0,25,0.00,,,0.00,,2013-05-05 23:32:00,
2013-05-05 17:42:00,61.0,25.0,26.72,NE,55,7.0,13.0,25,0.00,,,0.00,,2013-05-05 23:42:00,
2013-05-05 17:52:00,61.0,26.0,26.72,ESE,123,6.0,9.0,26,0.00,,,0.00,,2013-05-05 23:52:00,
2013-05-05 18:01:00,61.0,26.0,26.72,SE,126,3.0,10.0,26,0.00,,,0.00,,2013-05-06 00:01:00,
2013-05-05 18:11:00,61.0,26.0,26.72,SE,126,3.0,10.0,26,0.00,,,0.00,,2013-05-06 00:11:00,
2013-05-05 18:21:00,60.0,25.0,26.72,ESE,118,5.0,8.0,26,0.00,,,0.00,,2013-05-06 00:21:00,
2013-05-05 18:31:00,61.0,26.0,26.72,ESE,119,2.0,6.0,26,0.00,,,0.00,,2013-05-06 00:31:00,
2013-05-05 18:41:00,61.0,26.0,26.72,ESE,119,2.0,6.0,26,0.00,,,0.00,,2013-05-06 00:41:00,
2013-05-05 18:52:00,61.0,26.0,26.72,ESE,102,2.0,7.0,26,0.00,,,0.00,,2013-05-06 00:52:00,
2013-05-05 19:01:00,60.0,26.0,26.72,ESE,121,1.0,8.0,27,0.00,,,0.00,,2013-05-06 01:01:00,
2013-05-05 19:11:00,60.0,26.0,26.72,ESE,121,1.0,8.0,27,0.00,,,0.00,,2013-05-06 01:11:00,
2013-05-05 19:21:00,60.0,27.0,26.71,ENE,78,2.0,7.0,28,0.00,,,0.00,,2013-05-06 01:21:00,
2013-05-05 19:31:00,59.0,26.0,26.72,East,80,2.0,6.0,28,0.00,,,0.00,,2013-05-06 01:31:00,
2013-05-05 19:41:00,59.0,26.0,26.72,East,80,2.0,6.0,28,0.00,,,0.00,,2013-05-06 01:41:00,
2013-05-05 19:52:00,59.0,27.0,26.72,ESE,103,2.0,5.0,29,0.00,,,0.00,,2013-05-06 01:52:00,
2013-05-05 20:01:00,58.0,26.0,26.72,ESE,104,2.0,6.0,29,0.00,,,0.00,,2013-05-06 02:01:00,
2013-05-05 20:12:00,58.0,26.0,26.72,ESE,104,2.0,6.0,29,0.00,,,0.00,,2013-05-06 02:12:00,
2013-05-05 20:21:00,57.0,27.0,26.72,ESE,104,3.0,5.0,31,0.00,,,0.00,,2013-05-06 02:21:00,
2013-05-05 20:32:00,56.0,27.0,26.72,ESE,106,1.0,2.0,32,0.00,,,0.00,,2013-05-06 02:32:00,
2013-05-05 20:42:00,56.0,27.0,26.72,ESE,106,1.0,2.0,32,0.00,,,0.00,,2013-05-06 02:42:00,
2013-05-05 20:52:00,55.0,26.0,26.73,SSE,148,4.0,6.0,32,0.00,,,0.00,,2013-05-06 02:52:00,
2013-05-05 21:02:00,53.0,25.0,26.73,SSE,148,0.0,2.0,34,0.00,,,0.00,,2013-05-06 03:02:00,
2013-05-05 21:11:00,53.0,25.0,26.73,SSE,148,0.0,2.0,34,0.00,,,0.00,,2013-05-06 03:11:00,
2013-05-05 21:22:00,53.0,26.0,26.73,SSE,148,0.0,1.0,35,0.00,,,0.00,,2013-05-06 03:22:00,
2013-05-05 21:33:00,52.0,25.0,26.73,SSE,148,0.0,5.0,35,0.00,,,0.00,,2013-05-06 03:33:00,
2013-05-05 21:42:00,52.0,25.0,26.73,SSE,148,0.0,5.0,35,0.00,,,0.00,,2013-05-06 03:42:00,
2013-05-05 21:52:00,51.0,26.0,26.73,SSE,148,0.0,0.0,37,0.00,,,0.00,,2013-05-06 03:52:00,
2013-05-05 22:02:00,50.0,26.0,26.73,SSE,148,0.0,0.0,39,0.00,,,0.00,,2013-05-06 04:02:00,
2013-05-05 22:12:00,50.0,26.0,26.73,SSE,148,0.0,0.0,39,0.00,,,0.00,,2013-05-06 04:12:00,
2013-05-05 22:23:00,49.0,26.0,26.73,SSE,148,0.0,0.0,41,0.00,,,0.00,,2013-05-06 04:23:00,
2013-05-05 22:32:00,48.0,26.0,26.73,SSE,148,0.0,0.0,42,0.00,,,0.00,,2013-05-06 04:32:00,
2013-05-05 22:42:00,48.0,26.0,26.73,SSE,148,0.0,0.0,42,0.00,,,0.00,,2013-05-06 04:42:00,
2013-05-05 22:53:00,47.0,26.0,26.74,SSE,148,0.0,0.0,44,0.00,,,0.00,,2013-05-06 04:53:00,
2013-05-05 23:02:00,47.0,26.0,26.74,SE,146,0.0,1.0,44,0.00,,,0.00,,2013-05-06 05:02:00,
2013-05-05 23:12:00,47.0,26.0,26.74,SE,146,0.0,1.0,44,0.00,,,0.00,,2013-05-06 05:12:00,
2013-05-05 23:22:00,47.0,26.0,26.74,SE,146,0.0,1.0,43,0.00,,,0.00,,2013-05-06 05:22:00,
2013-05-05 23:32:00,48.0,26.0,26.74,South,180,0.0,2.0,42,0.00,,,0.00,,2013-05-06 05:32:00,
2013-05-05 23:42:00,48.0,26.0,26.74,South,180,0.0,2.0,42,0.00,,,0.00,,2013-05-06 05:42:00,
2013-05-05 23:52:00,47.0,25.0,26.74,South,180,0.0,1.0,42,0.00,,,0.00,,2013-05-06 05:52:00,